Location: Düngen
(52.0952°N, 10.0219°E)
Time: 14:38:33
(UTC+00:00)

Cosmos 2082 Rocket - Pass Details

Date: 11 March 2026
Orbit: 830 x 854 km, 71.0° (Epoch: 13 April)

Event Time Altitude Azimuth Distance (km) Brightness Sun altitude
Rises 18:24:03 0° 326° (NNW) 3,434 6.0 -11.1°
Reaches altitude 10° 18:26:34 10° 322° (NW) 2,495 5.4 -11.4°
Maximum altitude 18:32:05 50° 248° (WSW) 1,078 3.2 -12.3°
Drops below altitude 10° 18:37:33 10° 175° (S) 2,478 4.5 -13.1°
Sets 18:40:03 0° 170° (S) 3,408 5.1 -13.5°
